SCP
0 0 0 0 0 0 0 0 0 0 0 0 0 0 0 0 0 1 1 1 1 2 3 3 4 3 3 3 2 2 2 2 2 2 2 2 2 1 1 1 1 1 1 1 1 1 1 1 1
0 0 0 0 0 0 0 0 0 0 0 0 0 0 0 1 1 1 1 1 2 2 3 4 4 4 3 3 2 2 2 2 2 2 2 2 2 2 1 1 1 1 1 1 1 1 1 1 1
0 0 0 0 0 0 0 0 0 0 0 0 0 0 0 1 1 1 1 1 2 3 4 4 4 4 4 3 3 2 2 2 2 2 2 2 2 2 2 2 2 2 1 1 1 1 1 1 1
0 0 0 0 0 0 0 0 0 0 0 0 0 0 0 0 1 1 1 1 2 3 4 4 4 4 4 4 3 3 2 2 2 2 1 1 2 2 2 2 2 2 2 1 1 1 1 1 0
0 0 0 0 0 0 0 0 0 0 0 0 0 0 0 0 1 1 1 1 2 3 4 4 5 5 4 4 3 3 2 2 2 2 1 1 1 1 2 2 2 2 2 2 1 1 1 1 0
0 0 0 0 0 0 0 0 0 0 0 0 0 0 0 1 1 1 1 1 2 3 3 4 4 5 4 4 3 2 2 2 2 1 1 1 1 1 1 1 1 1 1 2 2 1 1 1 0
0 0 0 0 0 0 0 0 0 0 0 0 0 0 0 0 1 1 1 1 1 2 3 3 3 4 4 4 3 2 2 1 1 1 2 1 1 1 1 1 1 1 1 1 1 1 1 1 1
0 0 0 0 0 0 0 0 0 0 0 0 0 0 0 0 0 1 1 1 1 1 2 2 2 3 3 3 2 2 2 1 1 1 1 1 1 1 1 1 1 1 1 1 1 1 1 1 1
0 0 0 0 0 0 0 0 0 0 0 0 0 0 0 0 0 1 1 1 1 1 1 2 2 2 3 3 3 2 2 2 1 1 1 1 1 1 1 1 1 1 1 1 1 1 1 1 1
0 0 0 0 0 0 0 0 0 0 0 0 0 0 0 0 0 1 1 1 1 1 1 1 2 2 2 3 3 3 3 2 2 1 1 1 1 1 1 1 1 1 1 1 1 0 0 0 0
0 0 0 0 0 0 0 0 0 0 0 0 0 0 0 0 0 0 0 1 1 1 1 1 1 2 2 2 3 4 3 3 2 2 1 1 1 1 1 1 1 1 1 1 0 0 0 0 0
0 0 0 0 0 0 0 0 0 0 0 0 0 0 0 0 0 0 0 0 0 1 1 1 1 1 1 2 3 3 4 3 2 2 2 2 1 1 1 1 1 1 0 0 0 0 0 0 0
0 0 0 0 0 0 0 0 0 0 0 0 0 0 0 0 0 0 0 0 0 0 0 1 1 1 1 2 2 3 3 2 2 2 2 2 1 1 1 1 1 1 0 0 0 0 0 0 0
0 0 0 0 0 0 0 0 0 0 0 0 0 0 0 0 0 0 0 0 0 0 0 0 1 1 1 2 2 2 2 2 2 2 2 2 2 1 1 1 1 1 0 0 0 0 0 0 0
0 0 0 0 0 0 0 0 0 0 0 0 0 0 0 0 0 0 0 0 0 0 0 0 0 1 1 1 2 2 2 2 1 1 2 2 2 1 1 1 1 1 0 0 0 0 0 0 0
0 0 0 0 0 0 0 0 0 0 0 0 0 0 0 0 0 0 0 0 0 0 0 0 0 1 1 1 2 2 2 2 1 1 2 2 2 2 1 1 1 1 0 0 0 0 0 0 0
0 0 0 0 0 0 0 0 0 0 0 0 0 0 0 0 0 0 0 0 0 0 0 0 0 0 1 1 1 1 1 1 1 1 1 2 2 2 2 1 1 1 0 0 0 0 0 0 0
0 0 0 0 0 0 0 0 0 0 0 0 0 0 0 0 0 0 0 0 0 0 0 0 0 0 1 1 1 1 1 1 1 1 1 1 2 2 2 2 1 1 0 0 0 0 0 0 0
0 0 0 0 0 0 0 0 0 0 0 0 0 0 0 0 0 0 0 0 0 0 0 0 0 1 1 1 1 1 1 1 1 1 1 1 1 2 2 2 2 1 1 0 0 0 0 0 0
0 0 0 0 0 0 0 0 0 0 0 0 0 0 0 0 0 0 0 0 0 0 0 0 0 1 0 0 0 0 0 0 0 0 0 1 1 2 2 2 2 1 1 0 0 0 0 0 0
0 0 0 0 0 0 0 0 0 0 0 0 0 0 0 0 0 0 0 0 0 0 0 0 0 0 0 0 0 0 0 0 0 0 0 0 1 1 2 2 2 2 1 1 0 0 0 0 0
0 0 0 0 0 0 0 0 0 0 0 0 0 0 0 0 0 0 0 0 0 0 0 0 0 0 0 0 0 0 0 0 0 0 0 0 0 1 2 2 2 2 1 1 0 0 0 0 0
0 0 0 0 0 0 0 0 0 0 0 0 0 0 0 0 0 0 0 0 0 0 0 0 0 0 0 0 0 0 0 0 0 0 0 0 0 1 1 2 2 2 1 1 0 0 0 0 0
0 0 0 0 0 0 0 0 0 0 0 0 0 0 0 0 0 0 0 0 0 0 0 0 0 0 0 0 0 0 0 0 0 0 0 0 0 0 1 1 2 2 1 0 0 0 0 0 0
0 0 0 0 0 0 0 0 0 0 0 0 0 0 0 0 0 0 0 0 0 0 0 0 0 0 0 0 0 0 0 0 0 0 0 0 0 0 1 1 1 1 1 0 0 0 0 0 0
0 0 0 0 0 0 0 0 0 0 0 0 0 0 0 0 0 0 0 0 0 0 0 0 0 0 0 0 0 0 0 0 0 0 0 0 0 0 1 1 1 1 1 0 0 0 0 0 0
0 0 0 0 0 0 0 0 0 0 0 0 0 0 0 0 0 0 0 0 0 0 0 0 0 0 0 0 0 0 0 0 0 0 0 0 0 1 1 1 1 1 1 1 0 0 0 0 0
0 0 0 0 0 0 0 0 0 0 0 0 0 0 0 0 0 0 0 0 0 0 0 0 0 0 0 0 0 0 0 0 0 0 0 0 1 1 1 1 1 1 1 1 0 0 0 0 0
0 0 0 0 0 0 0 0 0 0 0 0 0 0 0 0 0 0 0 0 0 0 0 0 0 0 0 0 0 0 0 0 0 0 0 1 1 1 1 1 1 1 1 1 0 0 0 0 0
0 0 0 0 0 0 0 0 0 0 0 0 0 0 0 0 0 0 0 0 0 0 0 0 0 0 0 0 0 0 0 0 0 0 0 1 1 1 1 1 1 1 1 1 0 0 0 0 0
Wind_Speed
6 3 3 5 7 5 3 4 3 2 2 2 1 2 4 4 4 3 1 2 3 5 6 8 10 9 9 9 8 8 9 9 8 9 9 9 9 9 9 9 9 9 9 9 9 8 8 8 9
1 2 5 6 5 1 5 4 4 4 2 1 1 1 1 1 0 0 1 1 4 5 5 6 9 9 9 9 9 9 9 8 8 8 8 8 9 9 9 8 8 8 8 8 8 8 8 8 8
2 4 5 5 4 6 5 4 5 3 2 0 1 1 1 1 1 1 2 3 4 5 4 5 9 9 9 9 9 9 8 8 8 8 8 8 8 8 8 8 8 8 8 8 8 7 7 7 7
4 5 6 4 3 5 4 3 2 1 2 0 1 0 1 1 2 2 1 4 5 4 3 4 8 8 8 8 8 8 8 8 8 7 7 8 8 8 8 8 8 8 8 7 8 7 7 6 6
5 5 4 0 4 4 4 3 2 1 1 0 1 1 1 2 1 2 4 4 5 4 3 4 7 7 8 8 8 8 8 8 8 8 8 8 8 8 9 9 8 8 7 7 7 7 7 6 6
5 5 4 3 5 4 4 3 2 2 1 1 2 2 2 1 1 2 3 3 3 4 3 3 6 7 7 7 8 8 8 8 8 8 8 8 8 9 9 9 8 8 7 7 7 6 6 6 6
5 4 4 4 3 4 4 2 3 3 2 3 3 3 2 1 1 1 3 3 2 2 2 2 2 4 6 6 6 6 7 7 8 8 8 7 8 8 9 8 8 7 7 7 6 6 6 6 7
5 5 2 3 4 6 3 2 2 4 4 2 4 4 4 3 2 2 3 3 2 1 1 1 2 2 2 3 5 6 5 6 7 8 7 7 7 7 7 7 7 7 6 6 6 6 6 6 7
4 4 4 6 6 5 2 1 1 1 2 1 2 4 3 3 4 3 2 2 1 0 0 1 2 2 2 2 4 4 5 6 6 6 8 6 4 4 4 5 6 6 6 6 6 6 7 6 6
4 4 7 5 5 4 2 3 2 1 2 2 2 2 1 3 4 4 3 3 3 2 2 1 1 2 2 2 2 2 3 3 3 3 4 3 3 3 4 5 6 6 6 6 6 6 6 5 3
4 6 4 4 4 3 2 3 3 4 6 8 7 5 4 4 4 5 5 5 5 3 2 2 2 2 3 2 2 2 2 2 3 4 4 4 3 3 3 2 3 3 4 3 4 4 3 2 2
3 4 4 3 2 3 4 3 3 7 10 6 7 6 5 6 7 7 7 6 4 4 4 2 2 2 2 2 2 3 2 2 2 3 4 4 3 2 2 2 2 2 2 2 2 2 2 2 2
4 4 3 4 4 4 4 6 5 9 9 5 4 4 7 8 8 7 6 5 5 5 5 4 3 3 3 2 2 3 3 3 3 3 3 4 3 3 3 2 2 2 2 2 2 2 2 2 2
3 3 4 5 5 4 5 7 5 12 5 5 6 7 8 8 8 6 6 6 6 6 6 5 4 4 4 3 3 3 3 3 3 3 3 4 3 3 3 3 2 2 2 2 2 2 2 2 2
1 2 5 5 4 3 2 8 10 10 3 5 7 7 7 7 7 8 8 7 7 7 6 6 5 5 5 4 4 3 3 4 3 3 3 4 3 4 4 3 2 2 2 3 2 3 2 2 2
1 1 4 4 4 3 4 11 8 4 6 7 7 7 6 7 7 8 7 7 6 6 6 6 5 5 6 5 4 3 4 4 3 3 3 4 4 4 4 3 3 2 2 3 3 2 2 2 2
1 3 5 5 3 3 6 10 7 2 5 7 7 7 6 6 7 6 6 6 6 6 6 6 5 5 6 5 4 3 4 4 3 3 3 3 4 4 4 4 3 3 3 2 3 2 2 2 2
6 5 5 6 3 3 6 12 10 4 6 8 7 6 6 7 9 6 5 5 5 5 5 5 5 5 5 4 3 2 3 3 2 3 3 4 4 4 4 3 4 4 3 3 2 2 2 2 3
4 5 7 6 3 3 9 13 13 7 6 7 7 7 8 8 7 4 4 4 4 4 5 5 5 5 4 3 4 4 4 3 3 2 3 4 4 5 4 3 4 4 4 4 4 3 3 2 2
6 6 7 6 3 4 7 13 11 8 8 8 9 9 8 6 4 4 4 4 5 5 5 5 5 5 5 4 4 3 4 3 3 2 3 3 4 5 4 5 4 5 4 5 4 4 3 1 1
10 10 8 6 4 3 6 10 7 5 5 5 7 7 7 7 7 6 5 5 5 6 6 6 6 6 6 5 4 3 3 2 2 2 2 3 4 4 4 5 5 5 5 5 5 6 5 3 1
11 8 7 5 3 5 1 7 7 4 5 5 6 5 6 6 6 5 5 5 6 6 5 5 6 5 5 6 6 7 5 5 4 4 3 3 4 5 5 5 5 5 5 5 6 5 3 5 3
7 3 5 4 4 5 3 5 9 2 6 7 5 5 5 5 5 6 6 6 5 5 5 5 5 5 5 6 7 7 5 4 3 4 4 4 3 4 5 5 5 5 4 5 6 5 4 4 4
4 2 1 0 2 7 7 7 9 5 7 5 4 4 4 3 4 4 3 3 3 3 4 4 5 5 5 6 6 7 7 7 6 5 5 4 2 3 4 5 5 5 4 5 5 5 6 4 4
4 4 0 2 3 8 5 7 11 7 5 5 4 4 3 2 2 3 3 3 3 3 4 4 5 5 5 6 6 7 7 8 8 7 7 6 4 3 5 5 5 5 5 5 5 5 5 5 5
7 8 7 6 6 4 2 8 9 4 3 3 2 2 2 2 3 3 3 3 3 4 5 5 6 5 6 6 6 6 6 5 5 6 6 6 5 5 5 5 5 5 5 5 5 4 4 4 4
6 7 5 3 1 3 6 7 8 3 2 2 1 1 2 2 2 2 3 3 3 4 5 6 7 6 6 7 6 5 6 5 6 6 5 4 4 4 5 6 6 5 5 5 5 4 5 5 4
5 6 4 5 5 6 6 5 6 4 4 2 2 2 2 2 2 2 2 3 3 3 3 4 5 6 6 6 6 5 6 6 6 6 6 5 5 5 6 6 6 6 6 6 5 5 5 5 4
4 5 4 4 4 5 5 7 5 6 4 3 2 2 1 2 2 2 2 2 1 1 2 3 3 4 4 5 5 6 6 6 6 6 6 6 5 6 7 7 7 7 7 6 6 5 5 5 4
6 7 6 5 5 4 4 7 2 2 1 1 1 1 2 2 2 2 2 2 1 1 1 2 3 4 4 5 5 5 5 5 6 6 6 6 6 6 6 6 7 7 6 7 7 7 6 7 7
Wind_Direction
358 25 65 57 56 55 225 235 217 241 237 239 221 185 173 175 178 208 285 145 135 151 161 166 158 153 149 143 139 138 136 133 131 129 128 127 127 131 132 129 123 117 113 108 105 103 105 104 103
7 44 55 61 92 166 254 233 219 221 222 307 349 135 149 214 333 101 298 174 140 146 149 159 157 156 153 148 146 142 141 139 136 135 134 131 128 128 130 130 126 120 114 108 105 104 105 105 106
60 52 80 80 131 192 227 225 220 255 268 224 38 52 159 203 282 227 252 162 133 139 142 156 156 159 157 153 152 150 146 144 140 140 138 134 131 132 129 124 118 116 114 111 109 107 109 108 109
69 48 57 83 212 223 224 236 214 292 321 38 132 41 298 321 241 233 179 140 131 134 138 157 154 162 161 157 158 156 153 149 147 143 141 138 133 132 126 117 110 107 111 112 111 108 107 106 110
59 75 72 22 244 247 238 239 202 200 244 294 132 170 270 331 341 122 117 125 137 138 139 155 152 157 161 163 162 160 156 152 151 148 145 140 135 132 122 116 111 110 111 112 109 108 108 105 110
59 70 105 227 247 262 256 223 182 195 226 240 142 164 240 328 68 99 109 115 135 142 141 153 156 151 154 162 164 164 160 156 152 148 144 139 132 127 123 119 116 116 114 110 108 107 108 107 106
106 111 177 212 241 262 243 197 182 187 214 216 171 165 259 258 205 109 97 101 102 126 131 142 152 153 155 157 159 161 160 157 150 144 138 132 124 124 123 119 117 117 114 110 106 103 106 107 105
121 114 168 216 220 247 237 189 198 183 219 209 157 171 226 222 163 103 86 81 75 93 124 146 141 133 141 155 153 153 149 152 146 138 131 127 123 123 121 119 116 117 115 112 105 101 101 101 102
95 95 212 216 205 237 214 195 241 208 188 223 210 207 219 149 132 113 102 76 95 127 176 161 159 146 138 144 147 143 146 149 146 140 131 124 120 120 118 114 114 115 115 115 108 102 98 90 93
109 179 224 214 202 216 212 210 222 227 237 237 253 253 177 143 154 163 178 184 192 209 222 198 182 173 157 151 132 132 135 142 142 135 136 128 120 117 112 120 116 115 112 112 108 103 95 80 74
166 204 225 234 224 214 221 239 219 192 238 224 218 216 185 184 191 195 201 200 203 207 212 203 191 182 169 155 144 137 132 129 125 130 128 123 118 114 104 107 102 99 95 86 90 83 79 87 91
194 236 225 241 215 209 218 227 239 216 231 229 214 196 186 198 207 208 208 210 203 205 217 212 186 173 178 162 154 147 142 137 135 138 133 130 128 126 124 114 105 94 92 94 85 90 90 91 96
220 252 242 243 249 244 245 242 248 251 248 248 225 205 204 210 219 222 215 213 208 206 214 212 195 186 179 168 166 156 154 148 146 144 144 141 141 145 136 125 114 107 103 108 104 99 99 100 100
229 251 273 262 246 243 240 260 242 258 239 222 218 221 221 221 222 222 217 217 214 212 209 205 200 192 173 175 179 167 158 150 145 146 148 142 143 147 141 137 126 116 115 113 115 119 112 103 106
251 299 296 255 224 234 219 271 237 249 206 224 230 231 233 229 224 221 218 213 214 211 201 196 195 185 172 178 179 172 158 151 151 154 155 147 145 147 142 142 138 134 124 113 102 95 96 97 92
37 302 280 265 200 199 171 260 259 231 195 226 238 239 239 238 230 228 220 215 212 202 195 196 187 177 174 171 175 174 159 151 154 155 160 158 156 154 145 145 146 135 126 123 122 118 100 92 93
243 245 251 282 221 180 196 254 273 219 198 231 240 241 238 244 244 234 220 213 210 199 191 188 186 178 175 169 169 174 161 156 157 154 158 165 165 160 153 156 151 140 130 126 130 112 115 117 102
217 224 244 248 252 198 233 258 275 261 228 240 244 245 239 239 243 232 218 210 205 197 187 184 183 182 174 162 150 160 152 156 158 161 166 165 166 163 158 154 150 146 139 134 127 117 89 113 119
193 215 248 254 244 229 248 263 274 272 248 248 250 247 243 243 246 233 217 205 191 184 182 186 183 182 165 155 166 177 177 171 169 175 171 174 169 166 164 157 157 157 156 154 141 124 107 88 98
230 247 262 280 249 236 270 273 268 256 242 235 239 242 240 244 247 235 217 198 193 190 189 189 189 186 179 176 174 175 161 162 169 174 170 177 179 174 171 166 167 167 156 150 148 135 125 112 130
230 229 240 258 315 292 302 293 270 258 243 246 241 239 237 229 228 226 216 207 198 197 195 196 195 191 186 178 159 144 126 111 141 171 179 181 181 184 178 177 171 170 167 171 170 162 148 154 176
240 224 224 240 268 280 240 286 280 260 274 258 252 243 242 238 225 220 213 211 206 205 197 195 193 192 184 174 170 167 170 172 179 177 185 184 183 184 182 179 177 175 174 174 177 172 163 156 165
222 192 205 218 221 266 240 249 278 267 267 263 252 244 246 237 222 219 215 214 214 205 193 191 187 188 181 180 181 177 177 174 160 160 173 183 187 186 183 179 178 179 179 178 176 170 169 166 169
175 106 82 105 180 252 222 214 271 230 232 254 257 243 245 237 226 230 227 214 218 202 190 185 180 186 183 183 184 183 179 173 166 171 177 181 185 188 187 179 179 180 178 180 180 177 177 176 169
155 139 168 266 231 247 186 205 250 239 231 233 248 258 260 244 223 232 225 216 216 208 197 186 181 189 186 184 188 190 186 181 183 182 184 183 185 193 195 184 182 182 182 176 174 177 181 179 176
197 181 184 207 224 262 204 230 253 250 247 255 257 263 282 270 235 229 231 224 222 215 202 192 191 195 190 189 193 194 189 185 189 189 186 188 191 195 187 185 182 182 180 174 171 174 183 180 182
174 208 200 173 210 253 249 269 293 267 279 306 320 334 296 277 271 254 242 234 228 216 208 199 195 195 194 192 191 193 192 189 190 189 188 186 187 186 184 184 182 181 179 175 172 179 186 182 186
179 165 151 180 198 241 259 250 245 245 252 284 306 301 309 319 313 303 277 246 237 222 209 196 193 195 195 191 192 195 195 194 191 187 189 191 190 185 181 185 183 180 180 177 176 180 185 180 186
169 186 190 188 196 194 241 256 225 210 220 225 242 250 271 292 302 311 308 288 253 225 193 191 195 192 192 194 194 192 194 190 187 191 193 190 187 185 185 184 181 181 181 177 177 184 180 181 186
195 188 172 192 228 210 218 260 271 197 237 218 246 305 337 338 335 332 326 331 318 261 222 202 199 198 201 196 191 192 190 188 190 195 195 189 186 188 188 184 181 182 183 180 180 184 186 187 192